Regional Weather Roundup
Issued by NWS Northern Indiana

Home | Current Version | Previous Version | Text Only | Print | Product List | Glossary On
Versions: 1 2 3 4 5 6 7 8 9 10 11 12 13 14 15 16 17 18 19 20 21 22 23 24 25 26 27 28 29 30 31 32 33 34 35 36 37 38 39 40 41 42 43 44 45 46 47 48 49 50
801
ASUS43 KIWX 251000
RWRIWX

KIWX WEATHER ROUNDUP
NATIONAL WEATHER SERVICE NORTHERN INDIANA
600 AM EDT MON JUL 25 2016

NOTE: "FAIR" INDICATES FEW OR NO CLOUDS BELOW 12,000 FEET WITH NO
SIGNIFICANT WEATHER AND/OR OBSTRUCTIONS TO VISIBILITY.

* THESE STATIONS ARE NOT UNDER NWS QUALITY CONTROL. THEY ALSO MAY NOT
  REPORT WEATHER SUCH AS PRECIPITATION OR FOG.

INZ001>027-251100-
NORTHERN INDIANA

CITY           SKY/WX    TMP DP  RH WIND       PRES   REMARKS
GARY*          MOCLDY    75 N/A N/A W14       29.96S
KNOX*          CLOUDY    68  66  94 NW6       29.96R
SOUTH BEND     CLOUDY    71  68  90 NW10      29.96R
GOSHEN         CLOUDY    71  66  84 W3        29.96R
ANGOLA*          N/A     72  64  78 VRB5      29.94S
FORT WAYNE     CLOUDY    71  68  90 NE3       29.95R
PERU/GRISSOM   CLOUDY    70  69  95 NW5       29.95R

$$
INZ028>050-251100-
CENTRAL INDIANA

CITY           SKY/WX    TMP DP  RH WIND       PRES   REMARKS
LAFAYETTE      CLOUDY    70  69  97 NW9       29.95R
KOKOMO*        CLOUDY    72  63  73 CALM      29.95R
MUNCIE*        PTCLDY    75  66  73 SW6       29.97S
INDIANAPOLIS   CLOUDY    72  68  87 W6        29.98S

$$
MIZ043>046-050>051-056>058-064>065-071>073-077>080-251100-
SOUTHWEST LOWER MICHIGAN

CITY           SKY/WX    TMP DP  RH WIND       PRES   REMARKS
BATTLE CREEK   CLOUDY    73  68  84 W8        29.94R
BENTON HARBOR  CLOUDY    75  67  76 W13       29.94R
COLDWATER*     MOCLDY    71  70  95 CALM      29.95S
HOLLAND        CLOUDY    74  69  85 W7        29.92S
GRAND RAPIDS   CLOUDY    74  69  85 SW8       29.91S
KALAMAZOO      CLOUDY    75  66  73 W7        29.93R
STURGIS*       CLOUDY    69  68  96 CALM      29.94F
THREE RIVERS*  FAIR      72  68  87 W3        29.95R

$$
OHZ001>008-015>018-024>025-251100-
NORTHWEST OHIO

CITY           SKY/WX    TMP DP  RH WIND       PRES   REMARKS
DEFIANCE       PTCLDY    74  65  73 CALM      29.93F
FINDLAY        PTCLDY    78  72  81 W9        29.93S
TOLEDO EXPRESS MOCLDY    73  73 100 W6        29.93R
TOLEDO METCALF MOCLDY    77  73  87 W6        29.92R
LIMA           CLOUDY    73  70  90 W7        29.95F

$$
AND FOR LAKE MICHIGAN COASTAL AND OPEN LAKE BUOY OBSERVATIONS

STATION/POSITION TEMP    WIND        PRES    VSBY  WAVE
                 AIR SEA DIR/SP/G                  HT/PER
                 (F)     (DEG/KT/KT) (MB)    (MI)  (FT/S)
CALUMET HARBOR    74     240/  5/  9 1013.9F
MICHIGAN CITY     73     230/ 23/ 25   N/A
BURNS HARBOR      73     260/ 12/ 15 1014.2F
SAINT JOSEPH      76     250/ 12/ 19 1013.9F
SOUTH LAKE BUOY   74 72  250/ 10/ 10 1012.6          2/ 4
4 MI NW BRIDGMAN  74 73  260/ 12/ 16 1013.3R         4/ 4
MICHIGAN CITY     74 74  270/ 16/ 19   N/A           3/ 4

$$
&&




USA.gov is the U.S. government's official web portal to all federal, state and local government web resources and services.